This is the latest recevied weather packets stored in our database for station/object SR8NGO-1. If no packets are shown the sender has not sent any weather packets the latest 1 day(s).
| Time | Temp. | Humidity | Pressure | Rain* | Wind** | Luminosity | Snow |
|---|---|---|---|---|---|---|---|
| 1777955086 | 13.89° C | 59% | 1001.5 hPa | 134.11 mm | 3.13 m/s, 173° | - | - |
| 1777954846 | 13.89° C | 61% | 1001.4 hPa | 134.11 mm | 3.13 m/s, 183° | - | - |
| 1777954606 | 13.89° C | 62% | 1001.4 hPa | 133.1 mm | 3.58 m/s, 183° | - | - |
| 1777954366 | 12.78° C | 63% | 1001.5 hPa | 133.1 mm | 3.13 m/s, 177° | - | - |
| 1777954127 | 12.78° C | 64% | 1001.5 hPa | 133.1 mm | 3.13 m/s, 177° | - | - |
| 1777953886 | 12.78° C | 65% | 1001.4 hPa | 132.08 mm | 2.24 m/s, 189° | - | - |
| 1777953646 | 12.22° C | 65% | 1001.4 hPa | 131.06 mm | 1.79 m/s, 201° | - | - |
| 1777953406 | 12.22° C | 64% | 1001.4 hPa | 130.05 mm | 2.68 m/s, 190° | - | - |
| 1777953166 | 11.11° C | 64% | 1001.3 hPa | 130.05 mm | 3.13 m/s, 201° | - | - |
| 1777952926 | 11.11° C | 64% | 1001.3 hPa | 129.03 mm | 2.68 m/s, 189° | - | - |
| 1777952686 | 11.11° C | 64% | 1001.3 hPa | 128.02 mm | 3.58 m/s, 173° | - | - |
| 1777952446 | 11.11° C | 64% | 1001.3 hPa | 128.02 mm | 3.13 m/s, 194° | - | - |
| 1777952206 | 11.11° C | 64% | 1001.2 hPa | 128.02 mm | 3.58 m/s, 179° | - | - |
| 1777951966 | 11.11° C | 64% | 1001.2 hPa | 127 mm | 3.58 m/s, 196° | - | - |
| 1777951726 | 11.11° C | 64% | 1001.2 hPa | 125.98 mm | 3.58 m/s, 179° | - | - |
| 1777951486 | 11.11° C | 64% | 1001.2 hPa | 125.98 mm | 3.58 m/s, 183° | - | - |
| 1777951246 | 10° C | 64% | 1001.2 hPa | 124.97 mm | 3.58 m/s, 200° | - | - |
| 1777951006 | 10° C | 64% | 1001.3 hPa | 124.97 mm | 3.13 m/s, 184° | - | - |
| 1777950766 | 10° C | 64% | 1001.2 hPa | 124.97 mm | 3.58 m/s, 194° | - | - |
| 1777950526 | 11.11° C | 64% | 1001.3 hPa | 124.97 mm | 3.58 m/s, 177° | - | - |
| 1777950286 | 11.11° C | 63% | 1001.3 hPa | 123.95 mm | 3.58 m/s, 206° | - | - |
| 1777950046 | 11.11° C | 63% | 1001.3 hPa | 123.95 mm | 4.47 m/s, 184° | - | - |
| 1777949806 | 10° C | 63% | 1001.3 hPa | 123.95 mm | 3.58 m/s, 183° | - | - |
| 1777949566 | 10° C | 63% | 1001.2 hPa | 123.95 mm | 3.58 m/s, 189° | - | - |
| 1777949326 | 11.11° C | 63% | 1001.2 hPa | 123.95 mm | 4.02 m/s, 194° | - | - |
* Rain latest hour (hover to see other rain measurements)
** Current wind speed in m/s (hover to see current wind gust speed)